Location: Burland Observatory
(39.4088°N, 105.4217°W)
Time: 12:12:41
(UTC-07:00)

SR - Pass Details

Date: 10 December 2019
Orbit: 574 x 882 km, 66.7° (Epoch: 26 January)

Event Time Altitude Azimuth Distance (km) Brightness Sun altitude
Rises 16:34:48 0° 343° (NNW) 3,483 ? -0.3°
Reaches altitude 10° 16:38:30 10° 5° (N) 2,528 ? -0.9°
Maximum altitude 16:41:50 15° 40° (NE) 2,145 ? -1.5°
Drops below altitude 10° 16:45:06 10° 75° (ENE) 2,460 ? -2.0°
Sets 16:48:37 0° 98° (E) 3,339 ? -2.6°
